Location: Poughquag
(41.6090°N, 73.6820°W)
Time: 03:39:58
(UTC-04:00)

Vanguard 2 - Pass Details

Date: 31 May 2020
Orbit: 552 x 2938 km, 32.9° (Epoch: 06 July)

Event Time Altitude Azimuth Distance (km) Brightness Sun altitude
Rises 17:50:30 0° 215° (SW) 6,590 12.6 25.8°
Reaches altitude 10° 17:56:09 10° 206° (SSW) 5,323 12.1 24.7°
Maximum altitude 18:07:33 27° 156° (SSE) 3,334 10.6 22.6°
Drops below altitude 10° 18:15:45 10° 104° (ESE) 3,762 10.5 21.1°
Sets 18:18:53 0° 92° (E) 4,413 10.8 20.6°
